User: anonymous   Login
Location: Unspecified
(0.0000°N, 0.0000°E)
Time: 15:22:49
(UTC+00:00)
Language:

DOVE 4 - Orbit

View from above orbital plane
View from above orbital plane
View from above satellite
View from above satellite

Ground track
Ground track

The orbit data is extracted from the following two-line orbital elements,

1 39430U 13066Q   20222.11805583  .00000203  00000-0  45598-4 0  9994
2 39430  97.7933 157.4694 0151695  19.1803 341.5025 14.59420926357483
Epoch (UTC): 09 August 2020 02:50:00
Eccentricity: 0.0151695
inclination: 97.7933°
perigee height: 588 km
apogee height: 802 km
right ascension of ascending node: 157.4694°
argument of perigee: 19.1803°
revolutions per day: 14.59420926
mean anomaly at epoch: 341.5025°
orbit number at epoch: 35748

The dashed part of the orbit path shows where the satellite is in the earth's shadow,  

DLR